This demonstration page uses our WeatherBlox Daily Observations layout. Learn more.

Left ArrowRight Arrow

39.08367, -84.50855

Hourly Observations for December 24, 2019

Temp ( °F °C ) Dew Point ( °F °C ) Humidity (%) Winds ( mph kmh ) Pressure ( in mb ) Visibility ( mi km ) Precip ( " mm )
12:02 am 00:02 Clear with Freezing Fog 29 -1.7 29 -1.7 100 100 N N/A 30.14 1021 1 1 N/A
12:11 am 00:11 Clear with Mist and Fog 30 -1.1 29 -1.7 96 96 N N/A 30.14 1021 3 4 N/A
12:18 am 00:18 Clear with Mist and Fog 31 -0.6 29 -1.7 92 92 N N/A 30.14 1021 4 6 N/A
12:21 am 00:21 Clear with Mist and Fog 31 -0.6 29 -1.7 92 92 N N/A 30.14 1021 2 2 N/A
12:25 am 00:25 Mostly Cloudy with Freezing Fog 29 -1.7 29 -1.7 100 100 N N/A 30.14 1021 1 1 N/A
12:40 am 00:40 Mostly Cloudy with Freezing Fog 29 -1.7 28 -2.2 96 96 N N/A 30.14 1021 1 1 N/A
12:45 am 00:45 Mostly Cloudy with Freezing Fog 29 -1.7 28 -2.2 96 96 N N/A 30.14 1021 0 0 N/A
12:53 am 00:53 Mostly Cloudy with Freezing Fog 30 -1.1 28 -2.2 92 92 N N/A 30.12 1020 0 0 N/A
1:05 am 01:05 Mostly Cloudy with Freezing Fog 30 -1.1 30 -1.1 100 100 N N/A 30.14 1021 1 1 N/A
1:13 am 01:13 Mostly Cloudy with Freezing Fog 29 -1.7 29 -1.7 100 100 N N/A 30.14 1021 0 0 N/A
1:21 am 01:21 Mostly Cloudy with Freezing Fog 29 -1.7 28 -2.2 96 96 N N/A 30.14 1021 0 0 N/A
1:39 am 01:39 Mostly Cloudy with Freezing Fog 29 -1.7 28 -2.2 96 96 N N/A 30.14 1021 1 1 N/A
1:48 am 01:48 Mostly Cloudy with Freezing Fog 28 -2 28 -2 100 100 N N/A 30.14 1021 1 1 N/A
1:53 am 01:53 Mostly Cloudy with Freezing Fog 29 -1.7 28 -2.2 96 96 ENE 3 6 30.11 1020 1 1 N/A
2:18 am 02:18 Mostly Cloudy with Mist and Fog 29 -1.7 29 -1.7 100 100 N N/A 30.14 1021 1 1 N/A
2:45 am 02:45 Partly Cloudy with Mist and Fog 29 -1.7 28 -2.2 96 96 NE 3 6 30.14 1021 1 2 N/A
2:53 am 02:53 Mostly Clear with Mist and Fog 29 -1.7 28 -2.2 96 96 NE 3 6 30.12 1020 2 3 N/A
3:10 am 03:10 Mostly Cloudy with Mist and Fog 28 -2.2 27 -2.8 96 96 N N/A 30.15 1021 1 2 N/A
3:38 am 03:38 Mostly Cloudy with Freezing Fog 27 -2.8 26 -3.3 96 96 N N/A 30.16 1021 1 1 N/A
3:53 am 03:53 Mostly Cloudy with Freezing Fog 27 -2.8 26 -3.3 96 96 N N/A 30.13 1020 1 1 N/A
4:11 am 04:11 Mostly Cloudy with Freezing Fog 28 -2.2 27 -2.8 96 96 N N/A 30.15 1021 0 0 N/A
4:35 am 04:35 Mostly Cloudy with Freezing Fog 27 -2.8 26 -3.3 96 96 N N/A 30.16 1021 1 1 N/A
4:53 am 04:53 Mostly Cloudy with Mist and Fog 29 -1.7 28 -2.2 96 96 N N/A 30.13 1020 1 1 N/A
4:58 am 04:58 Mostly Cloudy with Mist and Fog 29 -1.7 28 -2.2 96 96 N N/A 30.16 1021 2 3 N/A
5:01 am 05:01 Mostly Cloudy with Mist and Fog 27 -2.8 27 -2.8 100 100 N N/A 30.16 1021 1 1 N/A
5:11 am 05:11 Mostly Cloudy with Freezing Fog 26 -3.3 26 -3.3 100 100 N N/A 30.17 1022 0 0 N/A
5:26 am 05:26 Mostly Cloudy with Freezing Fog 27 -2.8 26 -3.3 96 96 N N/A 30.16 1021 0 0 N/A
5:53 am 05:53 Mostly Cloudy with Freezing Fog 27 -2.8 27 -2.8 100 100 N N/A 30.14 1021 0 0 N/A
6:25 am 06:25 Mostly Cloudy with Freezing Fog 28 -2.2 28 -2.2 100 100 N N/A 30.17 1022 0 0 N/A
6:53 am 06:53 Mostly Cloudy with Freezing Fog 28 -2.2 28 -2.2 100 100 N N/A 30.15 1021 0 0 N/A
7:53 am 07:53 Mostly Cloudy with Freezing Fog 28 -2.2 27 -2.8 96 96 N N/A 30.16 1021 0 0 N/A
8:42 am 08:42 Mostly Cloudy with Freezing Fog 29 -1.7 29 -1.7 100 100 N N/A 30.19 1022 N/A N/A
8:53 am 08:53 Mostly Cloudy with Freezing Fog 29 -1.7 29 -1.7 100 100 N N/A 30.17 1022 N/A N/A
9:21 am 09:21 Mostly Cloudy with Freezing Fog 30 -1.1 29 -1.7 96 96 N N/A 30.20 1023 1 1 N/A
9:28 am 09:28 Mostly Cloudy with Freezing Fog 30 -1.1 29 -1.7 96 96 N N/A 30.20 1023 0 0 N/A
9:53 am 09:53 Mostly Cloudy with Freezing Fog 31 -0.6 30 -1.1 96 96 N N/A 30.19 1023 0 0 N/A
10:14 am 10:14 Mostly Cloudy with Freezing Fog 31 -0.6 31 -0.6 100 100 N N/A 30.21 1023 1 1 N/A
10:28 am 10:28 Mostly Cloudy with Mist and Fog 32 undefined 32 undefined 100 100 N N/A 30.21 1023 2 3 N/A
10:37 am 10:37 Mostly Cloudy with Mist and Fog 33 0.6 33 0.6 100 100 N N/A 30.21 1023 2 3 N/A
10:53 am 10:53 Mostly Cloudy with Mist and Fog 34 1.1 34 1.1 100 100 N N/A 30.19 1022 3 4 N/A
11:24 am 11:24 Partly Cloudy with Mist and Fog 38 3.3 38 3.3 100 100 N N/A 30.19 1022 4 6 N/A
11:53 am 11:53 Sunny 42 5.6 39 3.9 89 89 N N/A 30.16 1021 8 13 N/A
12:53 pm 12:53 Sunny 50 10 41 5 71 71 N N/A 30.13 1020 10 16 N/A
1:53 pm 13:53 Sunny 56 13.3 41 5 57 57 S 6 9 30.10 1019 10 16 N/A
2:53 pm 14:53 Sunny 57 13.9 40 4.4 53 53 SSW 5 7 30.10 1019 10 16 N/A
3:53 pm 15:53 Sunny 58 14.4 40 4.4 51 51 N N/A 30.09 1019 10 16 N/A
4:53 pm 16:53 Sunny 57 13.9 39 3.9 51 51 N N/A 30.08 1019 10 16 N/A
5:53 pm 17:53 Clear 44 6.7 38 3.3 79 79 N N/A 30.09 1019 10 16 N/A
6:53 pm 18:53 Clear 40 4.4 36 2.2 86 86 N N/A 30.10 1019 10 16 N/A
7:53 pm 19:53 Clear 36 2.2 35 1.7 97 97 N N/A 30.11 1020 10 16 N/A
8:53 pm 20:53 Clear 34 1.1 33 0.6 97 97 N N/A 30.10 1019 10 16 N/A
9:53 pm 21:53 Clear 32 undefined 32 undefined 100 100 N N/A 30.09 1019 10 16 N/A
10:53 pm 22:53 Clear 33 0.6 32 undefined 96 96 N N/A 30.09 1019 10 16 N/A
11:42 pm 23:42 Clear with Mist and Fog 32 undefined 32 undefined 100 100 N N/A 30.10 1019 3 4 N/A
11:50 pm 23:50 Clear with Mist and Fog 32 undefined 30 -1 93 93 N N/A 30.10 1019 5 8 N/A
11:53 pm 23:53 Clear with Mist and Fog 33 0.6 31 -0.6 92 92 N N/A 30.08 1019 5 8 N/A

Powered by AerisWeather